Regional Weather Roundup
Issued by NWS

Home | Current Version | Previous Version | Text Only | Print | Product List | Glossary On
Versions: 1 2 3 4 5 6 7 8 9 10 11 12 13 14 15 16 17 18 19 20 21 22 23 24 25 26 27 28 29 30 31 32 33 34 35 36 37 38 39 40 41 42 43 44 45 46 47 48 49 50
000
ASUS46 KPQR 011210
RWROR

OREGON REGIONAL WEATHER ROUNDUP
NATIONAL WEATHER SERVICE PORTLAND OR
500 AM PDT TUE SEP 01 2015

NOTE: "FAIR" INDICATES FEW OR NO CLOUDS BELOW 12,000 FEET WITH
NO SIGNIFICANT WEATHER AND/OR OBSTRUCTIONS TO VISIBILITY.

ORZ001>013-011300-
NORTHWEST OREGON


CITY           SKY/WX    TMP DP  RH WIND       PRES   REMARKS
ASTORIA        LGT RAIN  63  59  87 S10       29.91S
6HR MIN TEMP:  63; 6HR MAX TEMP:  63; 6HR PCP: TRACE;

NEWPORT        CLOUDY    57  55  94 CALM      29.99S
PORTLAND       CLOUDY    63  55  75 S7        29.95S
6HR MIN TEMP:  63; 6HR MAX TEMP:  66;

VANCOUVER WA   CLOUDY    64  54  69 CALM      29.94S
6HR MIN TEMP:  63; 6HR MAX TEMP:  66;

SCAPPOOSE      CLOUDY    60  55  83 CALM      29.93F
6HR MIN TEMP:  58; 6HR MAX TEMP:  61;

HILLSBORO      CLOUDY    58  54  86 E3        29.94F
6HR MIN TEMP:  55; 6HR MAX TEMP:  63;

AURORA         CLOUDY    58  54  86 CALM      29.96S
6HR MIN TEMP:  57; 6HR MAX TEMP:  63;

MCMINNVILLE    CLEAR     55  52  89 MISG      29.96S
6HR MIN TEMP:  54; 6HR MAX TEMP:  61;

SALEM          CLOUDY    61  54  77 SE3       29.95S
6HR MIN TEMP:  61; 6HR MAX TEMP:  66;

CORVALLIS      CLOUDY    57  52  82 W3        29.98S
EUGENE         CLOUDY    61  53  75 S3        29.97S
6HR MIN TEMP:  61; 6HR MAX TEMP:  64;

$$

ORZ021-028-011300-
SOUTHWEST OREGON


CITY           SKY/WX    TMP DP  RH WIND       PRES   REMARKS
NORTH BEND     PTCLDY    55  54  94 SE7       29.99R
6HR MIN TEMP:  55; 6HR MAX TEMP:  59;

BROOKINGS      CLEAR     54  54 100 NE3       29.96S
ROSEBURG       CLOUDY    62  52  69 CALM      29.97S
6HR MIN TEMP:  62; 6HR MAX TEMP:  65;

SEXTON SUMMIT  PTCLDY    53  49  86 S5        30.00F
6HR MIN TEMP:  51; 6HR MAX TEMP:  57; 6HR PCP: TRACE;

MEDFORD        MOCLDY    59  47  64 N3        29.95S
6HR MIN TEMP:  59; 6HR MAX TEMP:  70;

$$

ORZ014>016-041-011300-
COLUMBIA GORGE


CITY           SKY/WX    TMP DP  RH WIND       PRES   REMARKS
TROUTDALE      CLOUDY    63  53  70 SE3       29.95S
6HR MIN TEMP:  62; 6HR MAX TEMP:  67;

THE DALLES     PTCLDY    62  50  64 W8        29.91S
6HR MIN TEMP:  61; 6HR MAX TEMP:  68;

$$

ORZ029>031-041-044-049-050-061>064-502-503-505>511-011300-
EASTERN OREGON


CITY           SKY/WX    TMP DP  RH WIND       PRES   REMARKS
REDMOND        MOCLDY    39  35  86 CALM      29.97S
6HR MIN TEMP:  39; 6HR MAX TEMP:  52;

BEND           MOCLDY    45  39  81 CALM      29.98S
PRINEVILLE     MOCLDY    41  37  87 CALM      29.97S
KLAMATH FALLS  PTCLDY    41  38  89 CALM      30.02S
6HR MIN TEMP:  41; 6HR MAX TEMP:  56;

LAKEVIEW       PTCLDY    39  28  65 CALM        N/A
HERMISTON      PTCLDY    58  49  72 S9        29.90F
6HR MIN TEMP:  57; 6HR MAX TEMP:  66;

PENDLETON      MOCLDY    53  45  74 S8        29.94R
6HR MIN TEMP:  53; 6HR MAX TEMP:  63;

JOHN DAY       MOCLDY    53  40  62 E9        30.00R HAZE
MEACHAM        CLOUDY    40  37  89 CALM      29.99S
6HR MIN TEMP:  40; 6HR MAX TEMP:  48;

LA GRANDE      CLOUDY    54  37  54 CALM      29.96R
6HR MIN TEMP:  54; 6HR MAX TEMP:  63;

BAKER CITY     MOCLDY    45  41  86 CALM      29.97S
6HR MIN TEMP:  45; 6HR MAX TEMP:  58;

BURNS          PTCLDY    44  33  65 CALM      29.99S
6HR MIN TEMP:  44; 6HR MAX TEMP:  56;

ROME             N/A     49  30  48 SE7       29.96S
6HR MIN TEMP:  49; 6HR MAX TEMP:  65;

ONTARIO        CLEAR     50  43  77 W3        29.91R
6HR MIN TEMP:  49; 6HR MAX TEMP:  61;

$$


USA.gov is the U.S. government's official web portal to all federal, state and local government web resources and services.